Regional Weather Roundup
Issued by NWS Charleston, SC

Current Version | Previous Version | Graphics & Text | Print | Product List | Glossary On
Versions: 1 2 3 4 5 6 7 8 9 10 11 12 13 14 15 16 17 18 19 20 21 22 23 24 25 26 27 28 29 30 31 32 33 34 35 36 37 38 39 40 41 42 43 44 45 46 47 48 49 50
000 ASUS42 KCHS 212327 RWRCHS REGIONAL WEATHER ROUNDUP NATIONAL WEATHER SERVICE CHARLESTON SC 600 PM EST TUE NOV 21 2017 NOTE: "FAIR" INDICATES FEW OR NO CLOUDS BELOW 12,000 FEET WITH NO SIGNIFICANT WEATHER AND/OR OBSTRUCTIONS TO VISIBILITY. NOT ALL STATIONS ARE QUALITY CONTROLLED. USE DATA WITH CAUTION... ESPECIALLY DEWPOINT OBSERVATIONS. SCZ027-030-031-034>040-042>050-220000- ...SOUTHEAST SOUTH CAROLINA... CITY SKY/WX TMP DP RH WIND PRES REMARKS N CHARLESTON CLOUDY 65 59 81 NE9 30.01F WATERFRONT PRK NOT AVBL JOHNS ISLAND CLOUDY 64 61 88 CALM 30.01F PINOPOLIS N/A 63 59 88 E5 29.95S MONCKS CORNER FAIR 63 57 82 E6 30.02F SUMMERVILLE FAIR 63 59 88 CALM 30.02F BEAUFORT MCAS CLOUDY 66 61 84 E6 30.00S BEAUFORT ARPT LGT RAIN 63 59 88 E6 29.98F HILTON HEAD IS CLOUDY 64 61 88 NE8 30.00S WALTERBORO MOCLDY 64 59 82 E8 30.02S ALLENDALE CLOUDY 61 61 100 N5 30.02R ...SOUTHERN MIDLANDS AND PEE DEE... CITY SKY/WX TMP DP RH WIND PRES REMARKS GEORGETOWN FAIR 59 59 100 CALM 30.05S KINGSTREE FAIR 59 55 88 CALM 30.05S ORANGEBURG LGT RAIN 62 54 74 NE6 30.03F BARNWELL DRIZZLE 61 61 100 CALM 30.05R AIKEN DRIZZLE 55 55 100 W3 30.09R MANNING MOCLDY 61 36 39 MISG 30.03F COLUMBIA CLOUDY 61 57 87 NE5 30.04F SUMTER CLOUDY 59 52 78 NE3 30.03S FLORENCE CLOUDY 61 53 75 E7 30.06F MYRTLE BEACH CLOUDY 63 59 87 E10 30.07F N MYRTLE BEACH CLOUDY 62 59 90 NE9 30.06F $$ GAZ063-065-086>088-099>101-113>116-118-119-134>141-150-220000- ...SOUTHEAST GEORGIA... CITY SKY/WX TMP DP RH WIND PRES REMARKS SAVANNAH ARPT CLOUDY 64 63 96 N3 30.01R HUNTER AAF CLOUDY 65 62 90 CALM 29.98S FORT STEWART CLOUDY 63 61 93 CALM 29.99R STATESBORO CLOUDY 63 63 100 N3 30.02S SYLVANIA CLOUDY 63 63 100 NE6 30.03F CLAXTON MOCLDY 64 63 97 CALM 30.01S FOG ...CSRA...CENTRAL AND FAR SOUTHEAST GEORGIA... CITY SKY/WX TMP DP RH WIND PRES REMARKS THOMSON CLOUDY 57 55 92 CALM 30.09S AUGUSTA-BUSH LGT RAIN 61 58 90 E5 30.03F AUGUSTA-DANIEL CLOUDY 61 58 90 NW3 30.05S SWAINSBORO FAIR 61 61 100 NE6 30.03S VIDALIA CLOUDY 63 61 94 NE3 30.02R EASTMAN FAIR 61 52 71 CALM 30.04R HAZLEHURST FAIR 65 56 70 CALM 29.99S ALMA LGT RAIN 65 62 90 CALM 30.00R WAYCROSS DRIZZLE 65 62 90 N6 30.00R JESUP LGT RAIN 66 63 88 CALM 30.00F BAXLEY LGT RAIN 63 63 100 E3 30.00S BRUNSWICK LGT RAIN 64 61 88 CALM 29.99F SAINT SIMONS CLOUDY 67 65 93 N7 29.97S $$ SCZ027-028-034-036>038-045-046-048>050-GAZ119-141-220000- ...LAKE AND SUPPLEMENTAL COASTAL OBSERVATIONS... STATION/POSITION TIME TEMP WIND PRES WAVE SWELL AIR SEA DIR/SP/G HT/PER HT/PER/DIR (UTC) (F) (DEG/KT/KT) (MB) (FT/S) (FT/S/D) WINYAH BAY 2245 62 50/ 6 1017.0F LAKE MURRAY 2320 58 CALM 1016.9S ACE BASIN NERRS 2245 65 50/ 2 1016.0S FORT PULASKI 2300 64 61 60/ 3/ 3 1016.2 SAPELO ISLAND 2300 65 20/ 5 1015.0 $$ ANZ835-935-AMZ111-154-330-350-352-354-370-450-454-472-220000- ...C-MAN AND BUOY OBSERVATIONS... STATION/POSITION TIME TEMP WIND PRES WAVE SWELL AIR SEA DIR/SP/G HT/PER HT/PER/DIR (UTC) (F) (DEG/KT/KT) (MB) (FT/S) (FT/S/D) BUOY 41004 2310 69 74 90/ 10/ 12 1016.2 BUOY 41008 2250 69 67 130/ 14/ 16 1014.7R 5/ 7 3/120/ 7 FOLLY BEACH CMAN 2300 62 60/ 13/ 14 1016.6F CAPERS NEARSHORE 2308 60 62 40/ 10/ 14 1016.1F FRIPP NEARSHORE 2308 62 62 50/ 8/ 12 1014.9F STATION/POSITION TIME TEMP WIND PRES WAVE SWELL AIR SEA DIR/SP/G HT/PER HT/PER/DIR (UTC) (F) (DEG/KT/KT) (MB) (FT/S) (FT/S/D) 5E ST. MARYS GA 2300 66 N/A 5/ 7 FRYING PAN BUOY 2310 73 71 140/ 17/ 19 1017.7 BUOY 41025 2310 71 76 160/ 10/ 19 1020.7 CAPE LOOKOUT NC 2300 50/ 9/ 10 1020.4F BUOY 41002 2250 73 76 110/ 19/ 23 1018.5F 7/ 7 2/ 30/11 BUOY 41010 NOT AVBL ST AUGUSTINE FL 2300 69 69 170/ 12/ 13 1014.9R $$

USA.gov is the U.S. government's official web portal to all federal, state and local government web resources and services.